Track COSMOS 2287 (GLONASS) now! COSMOS 2287 (GLONASS) is classified as:
1 23203U 94050A 22224.62341222 .00000056 00000-0 00000-0 0 9993 2 23203 65.5148 247.9786 0009560 27.4616 336.6086 2.13101654217926